Hourly Data Report for May 27, 2012

All times are specified in Local Standard Time (LST). Add 1 hour to adjust for Daylight Saving Time where and when it is observed.

HAMILTON A
ONTARIO

43°10'25.000" N
79°56'06.000" W
237.70 m
6153193
71263
YHM

Download Data

Hourly Data (May 2012)
Hourly Data Report for May 27, 2012
Temp Definition
°C
Dew Point Temp Definition
°C
Rel Hum Definition
%
Wind Dir Definition
10's deg

Wind Spd Definition
km/h
Visibility Definition
km
Stn Press Definition
kPa
Hmdx Definition


Wind Chill Definition


Weather Definition


TIME
00:00 Legend Double Dagger 16.2 6.1 51 4 11 10.0 99.30     LegendNANA
01:00 Legend Double Dagger 15.4 7.0 57 2 12 10.0 99.31     Mainly Clear
02:00 Legend Double Dagger 15.7 5.7 51 5 16 10.0 99.27     LegendNANA
03:00 Legend Double Dagger 14.5 5.9 56 4 17 10.0 99.25     LegendNANA
04:00 Legend Double Dagger 14.6 6.8 59 3 12 10.0 99.30     Mostly Cloudy
05:00 Legend Double Dagger 15.2 7.8 61 6 12 10.0 99.30     LegendNANA
06:00 Legend Double Dagger 15.4 10.0 70 5 9 10.0 99.29     LegendNANA
07:00 Legend Double Dagger 15.7 10.9 73 4 13 10.0 99.33     Rain Showers
08:00 Legend Double Dagger 16.1 11.5 74 6 10 10.0 99.34     Rain Showers
09:00 Legend Double Dagger 16.8 13.6 81 3 15 10.0 99.31     LegendNANA
10:00 Legend Double Dagger 19.6 13.8 69 4 22 10.0 99.24     Mostly Cloudy
11:00 Legend Double Dagger 21.2 14.9 67 4 14 10.0 99.24 25   LegendNANA
12:00 Legend Double Dagger 21.5 12.8 57 0 4 10.0 99.27     LegendNANA
13:00 Legend Double Dagger 21.5 13.5 60 33 8 10.0 99.26 25   Rain Showers
14:00 Legend Double Dagger 22.7 13.6 56 18 13 10.0 99.05 26   LegendNANA
15:00 Legend Double Dagger 22.1 15.6 66 35 15 10.0 99.01 26   LegendNANA
16:00 Legend Double Dagger 20.9 14.6 67 0 7 10.0 99.05 25   Mostly Cloudy
17:00 Legend Double Dagger 22.8 15.0 61 34 8 10.0 99.11 27   LegendNANA
18:00 Legend Double Dagger 22.3 14.5 61 24 11 10.0 98.96 26   LegendNANA
19:00 Legend Double Dagger 21.5 14.5 64 21 22 10.0 98.81 25   Mostly Cloudy
20:00 Legend Double Dagger 21.0 14.3 65 22 19 10.0 98.54 25   LegendNANA
21:00 Legend Double Dagger 19.9 14.4 70 20 19 10.0 98.62     LegendNANA
22:00 Legend Double Dagger 17.7 14.3 80 1 5 10.0 98.75     Mostly Cloudy
23:00 Legend Double Dagger 17.6 14.5 82 10 7 10.0 98.73     LegendNANA

Notes on Data Quality.

Legend

  • E = Estimated
  • M = Missing
  • NA = Not Available
  • ‡ = Partner data that is not subject to review by the National Climate Archives
Date modified: